Back to catalog

FENGYUN 1C DEB

AliveSSO
NORAD 29836·DEBRIS·🇨🇳 China

Launched May 10, 1999 from Taiyuan Satellite Launch Center

Loading…

Next Passes (next 24 hours)

TLE

FreshSource: Space-Track

Epoch: Sep 13, 2026, 05:20 UTC

1 29836U 99025EE  26256.22232125  .00001102  00000-0  22764-3 0  9991
2 29836  98.1875 351.5356 0153378  73.5436 318.6475 14.55193082675461

Track FENGYUN 1C DEB in real time with AllMySat

Download on the App Store